sat.trackr.live / text

‹ back to catalog

STARLINK-11310 [DTC]

NORAD 61212 · 2024-171N

PAYLOAD ACTIVE UNKNOWN

§ Identity

Operator
Country
US
Launch date
2024-09-20
Launch site
AFWTR
Launch vehicle
Mass (kg)
RCS (m²)

Purposes: comms

External: N2YO · Heavens-Above · Gunter

§ Orbital elements

Epoch: 2026-09-21T18:43:28.730496Z

Period
91.74 min
Inclination
53.1580°
Eccentricity
0.0001256
Mean motion
15.69711531 rev/d
Perigee alt
358.9 km
Apogee alt
360.6 km
Semi-major
6,737.9 km
B*
7.1686e-6
RAAN
289.8453°
Arg perigee
80.1832°
Mean anomaly
279.9327°
Rev number
11,519

§ Raw data

STARLINK-11310 [DTC]1 61212U 24171N   26264.78019364  .00000280  00000+0  71686-5 0  99972 61212  53.1580 289.8453 0001256  80.1832 279.9327 15.69711531115196

JSON: /api/v1/satellites/61212 · /tle

For live sub-satellite position, see the globe view (requires WebGL).

§ Visibility from observer

Set your observer location to see the next 7 days of passes ≥ 10°. The values pass through the URL so the page stays shareable.

No JS? Fill the form by hand. The geolocation button needs JavaScript.